Location: ?ejkovice
(49.0137°N, 14.3821°E)
Time: 16:18:57
(UTC+00:00)

COBE Rocket - Pass Details

Date: 23 May 2024
Orbit: 675 x 773 km, 97.1° (Epoch: 15 May)

Event Time Altitude Azimuth Distance (km) Brightness Sun altitude
Rises 00:33:23 0° 15° (NNE) 3,122 8.9 -17.3°
Reaches altitude 10° 00:35:41 10° 19° (NNE) 2,213 7.7 -17.1°
Maximum altitude 00:40:29 59° 99° (E) 851 4.3 -16.8°
Enters shadow 00:43:32 23° 172° (S) 1,558 5.1 -16.6°
